Vorticity
15 16 16 15 15 15 15 15 15 15 14 14 14 15 16 16 17 18 18 18 16 12 10 9 8 8 8 7 8 10 12 15 20 24 25 21 9 1 -2 2 9 14 16 15 14 13 13 12 11 11 12 12 13 14 16 16 16 16 16 16 16 16 18 18 15 12 10 9 3
15 16 16 15 15 14 14 14 14 15 14 14 14 15 16 17 17 18 18 19 17 14 10 8 8 9 8 8 8 9 11 13 16 21 25 27 19 10 2 1 6 11 14 15 16 15 14 13 12 11 11 12 13 14 15 16 16 16 15 14 15 17 20 21 18 14 12 11 9
15 16 16 16 15 14 14 14 14 14 14 14 14 15 16 17 17 18 18 19 18 15 12 8 8 9 9 9 8 8 10 12 14 17 21 26 26 22 15 8 8 10 12 12 14 15 15 14 13 13 13 13 13 14 13 13 13 13 13 13 13 15 16 18 17 15 12 11 10
16 16 16 16 15 14 13 13 13 13 14 14 14 15 16 16 17 18 18 19 19 17 13 8 7 8 10 11 9 9 9 10 12 14 17 21 26 27 25 19 15 12 10 8 10 12 13 13 13 13 13 14 14 13 13 12 12 13 13 14 13 12 11 11 13 12 10 8 9
17 17 17 16 15 14 13 12 12 12 13 14 14 15 16 16 17 18 18 19 19 18 15 10 7 7 9 12 11 10 9 9 11 13 15 17 22 26 28 27 21 16 10 6 5 6 8 9 10 11 12 13 14 13 13 13 13 13 14 15 14 11 7 6 8 10 10 8 9
16 17 17 16 15 14 13 12 12 12 12 13 14 15 16 16 17 18 18 19 19 19 17 13 7 6 7 11 13 12 10 8 10 11 13 14 17 22 26 29 26 20 13 7 4 4 5 7 8 9 10 11 13 13 14 14 14 14 14 14 13 11 9 7 8 10 12 13 13
16 16 17 16 15 14 13 12 11 11 12 13 14 15 16 16 17 18 18 19 19 20 18 15 9 6 5 9 13 14 12 9 9 10 12 13 15 18 22 27 28 24 18 11 7 5 5 5 7 9 10 10 11 13 14 14 14 14 13 13 12 12 12 12 14 14 15 15 16
16 17 17 16 16 14 13 12 11 11 11 12 13 14 16 16 17 18 18 19 20 20 19 17 12 6 4 6 12 15 14 11 9 10 11 13 13 15 18 23 27 27 23 16 11 8 6 3 6 10 13 12 10 11 12 13 14 14 14 13 13 12 13 14 15 16 16 16 17
16 17 17 16 16 14 13 12 11 10 11 12 13 14 15 16 17 18 18 19 20 20 20 18 14 8 4 3 10 15 16 13 10 10 10 12 13 14 15 19 24 27 27 22 16 11 6 0 0 7 15 16 12 10 9 10 12 14 14 14 13 13 13 13 14 14 14 15 16
16 16 16 16 16 14 13 12 11 10 11 12 13 14 15 16 17 18 18 18 19 20 20 20 16 11 5 1 6 13 18 16 12 10 10 12 13 13 14 15 20 25 28 28 22 16 9 -0 -5 0 10 18 16 12 8 7 10 12 13 14 14 14 13 13 13 13 13 14 16
16 16 16 16 15 14 13 12 11 11 11 12 13 14 15 16 17 18 18 18 19 20 21 20 18 13 7 1 3 10 17 19 14 11 10 11 13 13 13 13 16 20 26 30 27 21 13 3 -7 -7 -1 12 16 15 11 7 7 8 11 13 14 14 14 14 13 13 13 14 15
17 17 16 16 15 14 13 12 11 11 12 12 13 14 15 16 17 17 18 18 19 20 21 21 19 15 10 3 2 6 14 20 16 12 10 10 12 13 13 13 13 16 21 28 30 27 20 10 -2 -10 -11 -2 10 16 15 10 6 5 7 10 12 13 13 13 13 13 13 13 14
17 17 16 16 14 13 12 12 12 12 12 13 13 14 15 16 17 17 17 17 18 19 21 21 20 17 13 6 2 4 10 20 18 14 10 9 12 13 14 13 13 13 16 22 29 31 28 19 7 -4 -11 -12 0 10 15 12 6 4 4 6 8 10 11 12 12 13 13 13 13
17 17 16 15 14 13 12 12 12 12 13 13 14 15 16 16 17 17 17 17 18 19 20 22 21 19 15 9 4 3 7 17 20 17 12 9 11 13 14 14 13 12 13 17 24 30 32 28 18 7 -2 -10 -5 3 9 10 6 3 2 3 5 7 8 10 11 12 12 12 12
17 17 16 15 14 13 12 12 12 13 13 14 15 15 16 17 17 17 17 16 17 18 20 21 22 21 17 12 6 3 5 14 20 19 14 8 10 12 14 15 13 12 12 13 18 26 32 34 28 19 9 1 -2 -1 1 3 3 3 2 2 3 5 6 8 10 10 11 11 12
17 17 16 15 14 13 12 12 13 13 14 14 15 16 17 17 17 17 17 16 17 18 20 21 22 21 19 14 9 4 4 11 19 20 16 9 9 11 14 16 15 13 12 11 14 20 27 33 33 28 20 11 5 1 -1 -1 1 3 4 3 3 4 6 7 8 10 10 11 11
17 16 16 15 13 13 12 12 13 13 14 15 16 16 17 17 17 17 16 16 17 18 19 21 22 22 20 16 10 6 4 8 17 20 18 11 8 10 13 16 16 14 12 11 12 15 21 28 33 33 28 21 14 9 5 4 5 7 7 7 6 6 6 7 8 9 10 11 11
17 16 16 14 13 13 12 12 13 14 15 16 16 17 18 18 17 17 16 16 17 18 19 21 22 22 20 17 12 7 5 6 15 20 20 13 8 8 11 16 16 16 14 12 11 13 17 22 29 32 31 27 21 18 15 14 14 14 14 12 9 8 7 8 8 8 10 11 12
17 16 16 14 13 12 12 12 13 14 15 16 17 18 18 18 17 16 16 16 16 18 20 21 22 22 21 18 13 9 5 5 14 20 21 15 9 7 10 14 17 17 15 13 12 13 15 19 24 27 28 25 22 20 21 22 22 22 20 16 13 11 10 8 8 9 10 11 13
17 16 16 14 13 12 12 12 13 14 15 16 18 18 18 18 17 16 16 16 16 18 20 21 22 22 22 20 15 10 6 5 13 19 22 18 10 7 8 12 16 17 17 14 13 13 14 17 20 23 23 20 18 17 19 21 22 22 21 19 16 14 12 10 9 9 10 11 13
17 16 16 14 13 12 12 12 13 14 16 17 18 18 18 18 17 16 16 16 16 18 19 21 22 23 22 21 17 12 7 6 13 20 23 19 11 7 6 10 15 17 18 16 14 14 14 16 19 20 20 18 14 12 11 11 13 16 18 19 18 16 15 13 12 11 11 12 12
16 16 16 14 13 12 12 13 13 15 16 18 18 18 18 17 16 16 16 16 16 18 19 21 23 24 24 23 18 12 8 7 13 20 24 21 13 7 5 8 13 17 18 18 16 15 15 16 18 20 20 19 14 8 4 2 7 12 16 18 18 18 18 19 20 19 17 15 13
16 16 15 14 13 12 12 13 14 15 16 18 18 18 18 17 16 16 16 16 17 18 20 22 24 25 25 24 18 12 7 7 14 22 26 23 14 7 5 6 12 16 18 19 17 16 16 16 17 19 20 20 16 9 2 -1 6 13 16 17 17 18 19 23 26 27 25 20 16
16 16 15 14 13 12 12 13 14 16 17 18 19 18 18 17 16 16 16 16 17 19 21 22 24 26 26 24 16 9 5 7 15 23 27 25 16 8 4 5 10 14 18 19 18 17 16 16 16 18 19 20 18 13 7 3 9 14 16 14 13 14 15 17 22 25 26 23 19
16 15 15 14 13 12 13 14 15 16 17 18 18 18 18 17 16 16 16 17 18 20 21 23 25 26 26 22 13 6 3 6 15 23 28 27 18 9 4 3 8 13 17 19 19 18 17 16 16 16 17 19 19 17 14 12 15 17 15 10 7 5 4 5 11 16 20 21 19
15 15 14 13 13 13 13 15 16 16 17 18 18 18 17 16 16 16 16 17 19 20 22 23 25 26 24 19 10 4 2 5 14 23 28 29 20 11 4 2 6 11 15 18 19 19 18 17 16 15 15 16 17 18 18 20 22 22 18 8 1 -4 -5 -5 2 9 15 18 18
15 14 14 13 13 13 14 15 16 17 18 18 18 17 17 16 16 17 18 19 20 21 22 24 25 25 23 17 8 3 1 5 14 22 29 30 22 13 5 1 4 9 14 17 19 19 19 18 17 15 14 14 14 15 17 21 25 25 22 13 3 -4 -8 -9 -5 1 7 11 14
15 14 14 13 13 14 15 16 17 18 18 17 17 16 16 16 17 18 19 20 22 23 24 25 25 25 22 16 7 2 1 5 14 23 30 32 24 15 6 1 3 7 12 15 17 18 19 19 18 16 15 14 13 13 14 16 21 24 23 18 10 3 -2 -5 -6 -5 -2 2 6
14 14 14 13 14 15 16 17 18 18 17 17 16 16 16 16 18 19 20 20 21 23 24 25 26 25 22 16 7 2 1 5 14 23 30 33 26 16 7 1 2 5 10 13 16 17 18 19 18 17 16 15 14 13 13 13 16 19 21 21 16 11 7 4 1 -2 -4 -3 -0
14 14 14 14 15 16 17 18 18 18 17 16 16 15 16 17 18 20 20 20 20 19 20 22 24 24 22 15 7 2 1 5 15 24 30 33 28 18 9 1 1 4 8 12 14 16 17 18 18 17 16 16 15 15 14 14 14 16 18 20 18 16 13 10 8 6 4 2 0
14 14 15 15 16 17 17 18 18 17 16 16 15 15 16 17 19 20 21 21 20 18 18 20 22 23 21 15 6 2 1 7 16 24 30 33 29 20 10 2 0 2 6 10 13 15 16 16 17 17 17 16 15 15 15 15 15 16 17 18 19 18 17 14 13 12 11 9 7
15 15 16 16 17 18 18 18 18 17 16 15 15 15 16 18 19 19 20 20 21 22 22 22 23 22 20 14 6 2 3 9 17 24 30 33 29 22 12 3 -1 0 3 8 12 14 15 15 16 16 16 16 16 15 15 15 16 16 17 18 19 20 19 18 16 15 14 12 11
16 16 17 18 18 18 18 18 18 17 16 15 15 15 16 18 20 20 21 21 23 26 27 27 25 22 18 12 6 4 6 11 18 24 29 32 30 23 14 4 -1 -1 1 6 10 13 14 14 14 14 15 16 16 16 15 15 15 16 17 18 19 19 19 19 18 17 16 15 14
16 17 18 18 18 18 18 18 17 16 15 15 15 15 17 21 25 25 23 20 22 25 28 28 25 20 15 9 6 6 9 13 19 24 28 31 30 24 16 7 0 -2 -1 4 9 12 13 13 13 13 14 15 16 15 15 15 15 15 16 16 17 18 18 18 17 17 17 16 15
18 18 19 19 19 18 18 18 16 16 15 15 15 16 20 26 28 23 17 13 16 20 24 26 24 19 13 7 5 6 10 15 20 24 28 30 29 25 18 10 2 -1 -1 2 7 10 12 12 12 13 14 15 15 15 14 14 14 14 14 14 15 16 16 17 17 17 17 17 16
18 19 19 19 18 18 17 17 16 15 15 15 16 18 23 28 25 18 12 9 10 14 18 22 22 18 12 6 4 6 10 15 20 24 27 28 28 25 20 13 5 0 -1 1 5 9 11 12 12 12 13 15 14 14 14 14 14 13 13 13 13 14 15 16 17 17 17 17 15
19 19 19 18 18 17 16 16 15 15 15 16 17 21 25 27 21 15 10 8 9 12 15 19 20 17 12 6 4 5 9 15 21 25 27 27 27 25 21 15 8 2 -0 0 3 7 10 12 12 12 12 13 13 14 14 15 14 14 13 12 12 13 15 15 16 16 17 16 14
19 19 18 18 17 16 16 15 15 15 16 17 20 23 26 25 18 12 8 8 10 13 16 18 19 16 12 6 4 5 9 14 21 25 27 27 26 24 22 18 11 5 1 0 2 6 9 11 11 11 11 11 12 13 14 15 16 15 14 13 13 13 14 14 15 16 16 17 15
19 19 18 17 16 16 15 15 15 16 17 18 22 25 26 24 17 11 7 7 10 14 17 20 19 17 13 8 5 5 8 14 20 25 27 26 25 24 22 19 14 8 4 1 2 5 8 10 11 11 10 10 11 12 13 15 16 16 16 15 14 14 14 14 14 15 16 17 16
19 18 17 16 16 15 14 14 15 16 18 20 23 26 26 23 15 8 3 3 10 15 20 22 21 18 15 10 7 6 8 13 20 24 26 25 24 23 22 21 17 12 7 3 3 5 7 10 10 10 10 10 11 12 13 14 16 16 16 16 16 15 15 14 14 14 15 16 17
18 17 16 16 15 14 14 14 16 17 19 22 25 27 26 22 11 1 -4 -1 9 17 22 24 22 19 16 12 8 7 9 14 20 24 26 25 23 22 22 21 18 14 10 5 4 5 7 9 9 10 10 10 11 12 12 13 14 15 16 16 16 16 16 16 15 15 15 16 16
Height
5584 5582 5581 5579 5578 5576 5575 5574 5573 5572 5571 5570 5569 5568 5567 5567 5566 5566 5566 5565 5565 5566 5566 5566 5566 5567 5567 5568 5568 5568 5569 5570 5571 5571 5573 5574 5575 5576 5578 5579 5581 5583 5584 5586 5587 5589 5591 5592 5594 5596 5597 5599 5601 5603 5606 5608 5611 5614 5616 5619 5620 5623 5627 5631 5634 5636 5637 5639 5640
5580 5578 5577 5576 5574 5573 5571 5570 5569 5568 5567 5566 5565 5564 5563 5563 5562 5562 5561 5561 5561 5561 5562 5562 5562 5563 5563 5564 5564 5565 5565 5566 5567 5568 5569 5570 5571 5573 5574 5576 5577 5579 5581 5582 5584 5585 5586 5588 5590 5592 5594 5595 5597 5600 5602 5605 5607 5610 5612 5614 5616 5619 5622 5626 5629 5631 5633 5635 5635
5576 5575 5573 5571 5570 5569 5567 5566 5565 5564 5563 5562 5561 5560 5560 5559 5558 5558 5557 5557 5557 5557 5558 5558 5559 5559 5559 5560 5560 5561 5561 5562 5563 5564 5565 5566 5567 5569 5570 5572 5574 5575 5577 5579 5580 5581 5583 5584 5586 5588 5590 5591 5594 5596 5598 5600 5602 5605 5607 5609 5611 5614 5617 5620 5623 5626 5629 5631 5632
5572 5571 5569 5568 5566 5565 5563 5562 5561 5560 5559 5558 5557 5556 5556 5555 5554 5554 5553 5553 5553 5553 5554 5554 5555 5555 5556 5556 5556 5557 5558 5558 5559 5560 5561 5562 5563 5565 5566 5568 5570 5571 5573 5575 5576 5578 5579 5581 5582 5584 5586 5588 5590 5592 5593 5595 5597 5600 5602 5604 5606 5609 5612 5616 5617 5620 5623 5626 5628
5568 5566 5565 5564 5562 5561 5559 5558 5557 5556 5555 5554 5553 5552 5552 5551 5550 5550 5549 5549 5549 5549 5549 5550 5551 5551 5551 5552 5553 5553 5554 5555 5555 5556 5557 5558 5559 5561 5562 5563 5566 5567 5569 5571 5573 5574 5576 5577 5579 5581 5582 5584 5586 5587 5589 5591 5593 5595 5597 5599 5601 5604 5607 5610 5612 5614 5617 5621 5623
5564 5562 5561 5560 5558 5557 5555 5554 5553 5551 5551 5550 5549 5548 5548 5547 5546 5546 5545 5545 5545 5545 5545 5546 5546 5547 5547 5548 5549 5549 5550 5551 5551 5552 5553 5554 5555 5556 5558 5559 5561 5563 5565 5567 5569 5571 5572 5574 5576 5577 5578 5580 5582 5584 5585 5587 5589 5591 5593 5595 5597 5600 5602 5604 5607 5610 5613 5616 5618
5560 5558 5557 5556 5554 5553 5551 5550 5549 5547 5546 5546 5545 5544 5544 5543 5542 5542 5541 5541 5540 5540 5541 5541 5542 5543 5543 5544 5545 5546 5546 5547 5548 5548 5549 5550 5551 5552 5554 5555 5557 5559 5561 5563 5565 5567 5569 5571 5572 5573 5575 5576 5578 5580 5581 5583 5585 5587 5589 5591 5593 5596 5598 5600 5603 5606 5609 5611 5614
5556 5554 5553 5551 5550 5549 5547 5546 5545 5543 5542 5541 5541 5540 5540 5539 5538 5538 5537 5536 5536 5536 5536 5537 5537 5538 5539 5540 5541 5541 5542 5543 5544 5545 5545 5546 5547 5548 5550 5551 5553 5555 5556 5558 5561 5562 5564 5566 5568 5570 5571 5572 5574 5576 5578 5579 5581 5583 5585 5587 5589 5592 5595 5597 5600 5602 5605 5607 5610
5551 5550 5548 5547 5546 5544 5543 5542 5540 5539 5538 5537 5536 5536 5535 5535 5534 5534 5533 5532 5532 5532 5532 5532 5533 5534 5535 5536 5536 5537 5538 5539 5540 5541 5541 5542 5543 5545 5546 5547 5549 5551 5552 5554 5556 5558 5560 5561 5564 5566 5567 5569 5571 5572 5574 5576 5577 5580 5581 5583 5586 5588 5591 5594 5596 5599 5601 5603 5606
5547 5545 5544 5543 5541 5540 5539 5537 5536 5535 5534 5533 5532 5531 5531 5531 5530 5530 5529 5528 5528 5528 5528 5528 5529 5530 5531 5531 5532 5533 5534 5535 5536 5537 5538 5538 5539 5541 5542 5543 5545 5546 5548 5550 5552 5554 5556 5557 5559 5561 5563 5565 5566 5568 5570 5572 5574 5576 5578 5580 5582 5585 5587 5590 5592 5595 5597 5599 5602
5542 5541 5540 5538 5537 5536 5534 5533 5532 5531 5530 5529 5528 5527 5526 5526 5526 5525 5525 5524 5524 5524 5523 5524 5525 5525 5526 5527 5528 5529 5530 5531 5532 5533 5534 5535 5536 5536 5538 5539 5541 5542 5544 5546 5548 5550 5551 5552 5554 5556 5559 5561 5563 5565 5566 5568 5571 5573 5575 5577 5579 5581 5584 5586 5588 5591 5593 5595 5598
5538 5536 5535 5534 5532 5531 5530 5529 5528 5526 5525 5524 5523 5523 5522 5522 5521 5521 5521 5520 5520 5519 5519 5520 5520 5521 5522 5523 5524 5525 5526 5526 5527 5529 5530 5531 5532 5533 5534 5535 5537 5538 5540 5542 5544 5546 5547 5549 5550 5552 5554 5557 5559 5561 5563 5565 5567 5569 5571 5574 5576 5578 5581 5582 5585 5587 5589 5592 5595
5533 5532 5531 5529 5528 5527 5526 5524 5523 5522 5521 5520 5519 5518 5518 5517 5517 5516 5516 5516 5516 5515 5515 5515 5516 5516 5517 5519 5520 5521 5521 5522 5523 5525 5526 5527 5528 5529 5530 5531 5533 5534 5536 5538 5540 5541 5543 5545 5546 5548 5550 5552 5555 5557 5559 5561 5564 5566 5568 5571 5573 5575 5577 5579 5581 5583 5586 5588 5591
5529 5527 5526 5525 5523 5522 5521 5520 5519 5518 5517 5516 5515 5514 5513 5513 5512 5512 5512 5511 5511 5511 5511 5511 5511 5512 5513 5514 5516 5516 5517 5518 5519 5521 5522 5523 5524 5526 5526 5528 5529 5531 5532 5534 5536 5537 5539 5541 5542 5544 5546 5548 5551 5553 5556 5558 5561 5563 5565 5567 5570 5571 5573 5575 5577 5580 5583 5585 5588
5525 5523 5522 5520 5519 5518 5517 5516 5514 5513 5512 5511 5510 5510 5509 5508 5508 5508 5507 5507 5507 5507 5507 5507 5507 5508 5509 5510 5511 5512 5513 5514 5515 5516 5518 5519 5521 5522 5523 5524 5525 5527 5528 5530 5531 5533 5535 5537 5539 5541 5542 5545 5547 5550 5552 5555 5557 5560 5562 5564 5566 5568 5570 5572 5575 5577 5580 5582 5585
5521 5519 5517 5516 5515 5513 5512 5511 5510 5509 5508 5507 5506 5505 5505 5504 5504 5503 5503 5503 5502 5502 5502 5503 5503 5504 5505 5506 5507 5508 5510 5511 5511 5513 5514 5516 5517 5518 5519 5521 5522 5523 5525 5526 5528 5529 5531 5533 5535 5537 5539 5541 5543 5546 5549 5551 5554 5556 5559 5561 5563 5565 5567 5569 5572 5574 5576 5579 5581
5516 5515 5513 5511 5510 5509 5508 5506 5506 5505 5504 5502 5501 5501 5500 5500 5499 5499 5499 5498 5498 5498 5498 5498 5499 5500 5501 5502 5503 5504 5506 5507 5508 5509 5510 5512 5513 5515 5516 5517 5518 5520 5521 5522 5524 5526 5527 5529 5531 5533 5535 5537 5540 5542 5545 5548 5551 5553 5556 5557 5560 5561 5563 5566 5568 5571 5573 5576 5578
5512 5510 5509 5507 5506 5505 5503 5502 5501 5500 5499 5498 5497 5496 5496 5495 5495 5494 5494 5494 5494 5494 5494 5494 5495 5496 5496 5497 5499 5500 5501 5503 5504 5505 5506 5508 5509 5511 5512 5513 5515 5516 5517 5519 5521 5522 5523 5525 5527 5529 5531 5534 5536 5539 5541 5544 5547 5550 5552 5554 5556 5558 5560 5562 5565 5567 5570 5572 5574
5507 5506 5505 5503 5501 5500 5499 5498 5496 5496 5495 5494 5493 5492 5491 5491 5490 5490 5490 5490 5490 5490 5490 5490 5491 5491 5492 5493 5495 5496 5498 5499 5500 5501 5502 5504 5506 5507 5509 5510 5511 5512 5514 5516 5517 5519 5520 5521 5523 5526 5528 5530 5533 5535 5538 5540 5543 5546 5548 5551 5552 5555 5557 5559 5561 5563 5566 5568 5570
5503 5501 5500 5499 5497 5496 5494 5493 5492 5491 5490 5489 5488 5488 5487 5486 5486 5486 5485 5485 5486 5486 5486 5486 5486 5487 5488 5489 5491 5492 5494 5495 5496 5497 5499 5500 5502 5503 5505 5506 5508 5509 5511 5512 5514 5515 5517 5518 5520 5522 5525 5527 5530 5532 5535 5537 5540 5542 5545 5547 5549 5551 5553 5556 5558 5560 5562 5564 5566
5498 5497 5496 5494 5493 5491 5490 5489 5488 5487 5486 5485 5484 5483 5483 5482 5481 5481 5481 5481 5481 5481 5481 5482 5482 5483 5484 5485 5487 5488 5490 5491 5492 5493 5495 5496 5498 5500 5501 5503 5505 5506 5507 5509 5510 5512 5514 5515 5517 5519 5521 5524 5526 5529 5531 5534 5537 5539 5541 5543 5545 5548 5550 5552 5554 5556 5558 5560 5562
5493 5492 5491 5490 5488 5487 5486 5484 5483 5482 5481 5481 5480 5479 5478 5478 5477 5477 5477 5477 5477 5477 5477 5478 5478 5479 5480 5481 5483 5485 5486 5487 5489 5490 5491 5493 5495 5496 5498 5500 5501 5502 5504 5505 5507 5509 5510 5512 5514 5516 5518 5520 5523 5525 5528 5531 5533 5536 5538 5540 5542 5544 5547 5549 5550 5552 5554 5556 5558
5488 5487 5486 5485 5484 5482 5481 5480 5479 5478 5477 5476 5476 5475 5474 5474 5473 5473 5472 5472 5473 5473 5473 5474 5474 5475 5476 5478 5479 5481 5482 5484 5485 5486 5487 5489 5491 5493 5495 5496 5498 5499 5501 5502 5504 5505 5507 5509 5511 5512 5515 5517 5519 5521 5524 5526 5529 5531 5534 5536 5538 5541 5544 5546 5547 5549 5550 5552 5554
5483 5482 5481 5481 5479 5478 5477 5476 5475 5474 5473 5472 5472 5471 5470 5470 5469 5469 5468 5468 5469 5469 5469 5470 5471 5471 5473 5474 5476 5477 5479 5480 5481 5482 5484 5485 5487 5490 5491 5493 5495 5496 5497 5499 5500 5502 5504 5506 5507 5509 5511 5513 5516 5518 5520 5522 5524 5527 5530 5532 5535 5537 5540 5541 5543 5545 5546 5548 5550
5479 5478 5477 5476 5475 5474 5472 5471 5471 5470 5469 5468 5467 5467 5466 5466 5465 5465 5464 5464 5465 5465 5465 5466 5467 5468 5469 5471 5472 5474 5475 5476 5477 5479 5480 5482 5484 5486 5488 5490 5491 5493 5494 5496 5497 5499 5501 5502 5504 5506 5508 5510 5512 5514 5516 5518 5520 5523 5526 5528 5531 5533 5535 5537 5538 5541 5543 5545 5546
5474 5473 5472 5471 5470 5469 5468 5467 5466 5466 5465 5464 5463 5463 5462 5461 5461 5461 5461 5461 5461 5461 5461 5462 5463 5464 5466 5467 5469 5470 5471 5473 5474 5475 5476 5478 5481 5483 5485 5487 5489 5490 5491 5493 5494 5496 5498 5500 5501 5503 5505 5507 5509 5511 5513 5514 5516 5519 5521 5524 5526 5528 5530 5532 5534 5536 5539 5541 5543
5469 5468 5468 5467 5466 5465 5464 5463 5462 5461 5461 5460 5459 5459 5458 5457 5457 5457 5457 5457 5457 5457 5458 5459 5460 5461 5462 5464 5465 5467 5468 5469 5471 5472 5473 5475 5477 5480 5482 5484 5486 5487 5488 5490 5491 5493 5495 5496 5498 5500 5502 5504 5506 5507 5509 5511 5513 5515 5517 5519 5521 5523 5526 5528 5530 5533 5535 5538 5540
5465 5464 5463 5462 5461 5460 5459 5459 5458 5457 5457 5456 5456 5455 5454 5454 5453 5453 5453 5453 5453 5454 5454 5455 5456 5457 5459 5461 5462 5464 5465 5466 5467 5468 5470 5471 5474 5476 5479 5481 5482 5484 5485 5487 5489 5490 5492 5494 5496 5497 5499 5501 5502 5504 5506 5508 5509 5511 5513 5515 5517 5519 5521 5524 5526 5529 5532 5534 5536
5460 5459 5458 5458 5457 5456 5455 5454 5454 5453 5453 5452 5451 5451 5450 5450 5450 5450 5449 5450 5450 5451 5451 5452 5453 5454 5456 5457 5459 5461 5462 5463 5464 5465 5466 5468 5471 5473 5476 5478 5480 5481 5482 5484 5486 5487 5489 5491 5493 5495 5496 5498 5500 5501 5503 5504 5506 5508 5510 5511 5514 5516 5518 5520 5523 5526 5529 5531 5534
5455 5455 5454 5453 5452 5451 5451 5450 5450 5449 5449 5448 5447 5447 5447 5446 5446 5446 5446 5446 5446 5447 5448 5449 5450 5451 5453 5455 5456 5457 5459 5460 5461 5462 5464 5465 5467 5470 5472 5475 5476 5478 5480 5481 5483 5485 5486 5488 5490 5491 5493 5495 5497 5498 5500 5502 5503 5505 5507 5509 5511 5513 5515 5517 5519 5522 5525 5528 5531
5451 5450 5449 5449 5448 5447 5446 5446 5446 5445 5445 5444 5444 5443 5443 5443 5443 5443 5443 5443 5443 5444 5445 5446 5447 5449 5450 5452 5453 5455 5456 5457 5458 5459 5461 5462 5464 5466 5469 5471 5473 5476 5477 5479 5481 5482 5484 5486 5487 5489 5491 5492 5494 5496 5498 5499 5501 5503 5505 5506 5508 5510 5512 5514 5516 5519 5522 5526 5528
5446 5445 5445 5444 5443 5443 5442 5442 5441 5441 5441 5440 5440 5440 5440 5439 5439 5440 5440 5440 5441 5441 5442 5443 5444 5446 5447 5449 5451 5452 5453 5454 5455 5456 5457 5459 5461 5464 5466 5468 5471 5473 5475 5476 5478 5480 5481 5483 5485 5486 5488 5490 5492 5494 5495 5497 5499 5501 5502 5504 5506 5508 5510 5512 5514 5517 5520 5523 5525
5442 5441 5440 5439 5439 5438 5438 5438 5437 5437 5437 5436 5436 5436 5436 5436 5436 5436 5437 5437 5438 5438 5439 5440 5441 5443 5445 5446 5448 5449 5450 5451 5452 5453 5455 5456 5458 5461 5463 5466 5468 5470 5472 5474 5476 5477 5479 5480 5482 5484 5486 5487 5489 5491 5493 5494 5496 5498 5500 5502 5504 5506 5507 5509 5512 5515 5518 5520 5522
5437 5436 5436 5435 5435 5434 5434 5434 5433 5433 5433 5433 5433 5433 5433 5433 5433 5433 5434 5435 5436 5436 5437 5438 5439 5441 5442 5444 5445 5446 5447 5448 5449 5450 5451 5453 5455 5458 5461 5463 5466 5468 5470 5471 5473 5475 5476 5478 5480 5481 5483 5485 5487 5488 5490 5491 5493 5495 5497 5499 5501 5503 5505 5506 5509 5511 5513 5516 5518
5433 5432 5431 5431 5431 5430 5430 5430 5430 5430 5429 5429 5429 5429 5430 5430 5430 5431 5432 5433 5434 5434 5435 5436 5437 5438 5440 5441 5442 5443 5444 5445 5446 5447 5449 5451 5453 5455 5458 5461 5463 5465 5467 5469 5470 5472 5474 5476 5477 5479 5481 5483 5484 5486 5487 5489 5491 5493 5495 5496 5498 5500 5502 5503 5505 5507 5510 5512 5514
5429 5428 5427 5427 5426 5426 5426 5426 5426 5426 5426 5426 5426 5426 5426 5427 5427 5428 5429 5431 5431 5432 5433 5433 5435 5436 5437 5438 5440 5441 5442 5443 5444 5445 5446 5448 5450 5452 5455 5457 5460 5462 5464 5466 5468 5470 5472 5473 5476 5478 5479 5480 5482 5483 5485 5487 5488 5490 5492 5494 5495 5497 5499 5500 5502 5504 5506 5508 5510
5424 5424 5423 5423 5422 5422 5422 5422 5422 5422 5422 5422 5422 5423 5423 5424 5425 5426 5427 5428 5429 5430 5430 5431 5432 5433 5435 5436 5437 5438 5439 5440 5441 5442 5444 5446 5447 5449 5451 5454 5457 5459 5461 5463 5466 5468 5470 5471 5474 5476 5477 5478 5480 5481 5483 5485 5486 5488 5490 5491 5492 5494 5495 5497 5499 5501 5502 5504 5506
5420 5420 5419 5419 5418 5418 5418 5418 5419 5419 5419 5419 5419 5420 5421 5421 5422 5423 5425 5426 5426 5427 5428 5428 5430 5431 5432 5433 5435 5436 5436 5437 5439 5440 5441 5443 5445 5446 5449 5451 5454 5456 5459 5461 5463 5466 5467 5469 5471 5473 5474 5476 5477 5479 5481 5482 5484 5486 5487 5489 5490 5491 5492 5494 5496 5497 5499 5501 5502
5416 5416 5415 5415 5415 5415 5415 5415 5415 5415 5416 5416 5416 5417 5418 5419 5420 5421 5422 5423 5424 5425 5426 5426 5427 5428 5430 5431 5432 5433 5434 5435 5436 5437 5439 5440 5442 5444 5446 5448 5451 5454 5456 5458 5461 5463 5465 5466 5468 5470 5471 5473 5475 5476 5478 5480 5481 5483 5484 5486 5487 5488 5490 5491 5493 5494 5496 5497 5499
5412 5412 5411 5411 5411 5411 5411 5411 5412 5412 5412 5413 5413 5414 5415 5416 5417 5419 5420 5421 5422 5423 5423 5424 5425 5426 5427 5429 5430 5431 5432 5433 5434 5435 5436 5438 5440 5441 5443 5446 5448 5451 5454 5456 5458 5461 5462 5464 5466 5467 5468 5470 5472 5474 5475 5477 5478 5480 5481 5482 5484 5486 5487 5488 5490 5491 5493 5494 5496
5408 5408 5408 5407 5407 5407 5408 5408 5408 5409 5410 5410 5411 5411 5412 5414 5415 5416 5418 5419 5420 5420 5421 5421 5423 5424 5425 5426 5427 5429 5430 5431 5431 5433 5434 5436 5437 5439 5441 5443 5446 5448 5451 5454 5456 5458 5460 5461 5463 5465 5466 5468 5470 5471 5473 5474 5476 5477 5478 5480 5481 5482 5484 5486 5487 5489 5490 5491 5493